Time,TemperatureF,DewpointF,PressureIn,WindDirection,WindDirectionDegrees,WindSpeedMPH,WindSpeedGustMPH,Humidity,HourlyPrecipIn,Conditions,Clouds,dailyrainin,SolarRadiationWatts/m^2,SoftwareType,DateUTC
2013-04-29 10:55:00,62.0,54.0,29.86,West,264,7.0,10.0,75,0.00,,,0.00,670,weatherlink.com 1.10,2013-04-29 14:55:00,
2013-04-29 11:11:00,63.2,54.0,29.86,WSW,246,7.0,9.0,72,0.00,,,0.00,703,weatherlink.com 1.10,2013-04-29 15:11:00,
2013-04-29 11:26:00,63.3,54.0,29.86,WNW,286,5.0,9.0,71,0.00,,,0.00,744,weatherlink.com 1.10,2013-04-29 15:26:00,
2013-04-29 11:41:00,63.8,53.0,29.86,West,273,6.0,9.0,69,0.00,,,0.00,775,weatherlink.com 1.10,2013-04-29 15:41:00,
2013-04-29 11:56:00,64.5,54.0,29.86,West,272,4.0,9.0,69,0.00,,,0.00,796,weatherlink.com 1.10,2013-04-29 15:56:00,
2013-04-29 12:10:00,64.8,54.0,29.86,SW,222,6.0,11.0,67,0.00,,,0.00,849,weatherlink.com 1.10,2013-04-29 16:10:00,
2013-04-29 12:25:00,65.7,54.0,29.86,WNW,284,1.0,10.0,65,0.00,,,0.00,990,weatherlink.com 1.10,2013-04-29 16:25:00,
2013-04-29 12:40:00,65.2,53.0,29.86,WSW,242,7.0,11.0,65,0.00,,,0.00,329,weatherlink.com 1.10,2013-04-29 16:40:00,
2013-04-29 12:56:00,66.5,54.0,29.85,SW,219,8.0,12.0,65,0.00,,,0.00,1025,weatherlink.com 1.10,2013-04-29 16:56:00,
2013-04-29 13:11:00,66.6,54.0,29.84,SSW,194,5.0,12.0,65,0.00,,,0.00,979,weatherlink.com 1.10,2013-04-29 17:11:00,
2013-04-29 13:26:00,66.1,53.0,29.84,SW,220,4.0,10.0,64,0.00,,,0.00,396,weatherlink.com 1.10,2013-04-29 17:26:00,
2013-04-29 13:41:00,65.7,53.0,29.84,SSW,208,9.0,12.0,64,0.00,,,0.00,693,weatherlink.com 1.10,2013-04-29 17:41:00,
2013-04-29 13:56:00,66.6,53.0,29.83,WSW,251,7.0,12.0,61,0.00,,,0.00,833,weatherlink.com 1.10,2013-04-29 17:56:00,
2013-04-29 14:11:00,66.4,52.0,29.84,WSW,249,6.0,11.0,60,0.00,,,0.00,475,weatherlink.com 1.10,2013-04-29 18:11:00,
2013-04-29 14:26:00,66.7,53.0,29.84,SW,220,11.0,13.0,62,0.00,,,0.00,464,weatherlink.com 1.10,2013-04-29 18:26:00,
2013-04-29 14:41:00,66.5,53.0,29.83,South,182,2.0,11.0,62,0.00,,,0.00,482,weatherlink.com 1.10,2013-04-29 18:41:00,
2013-04-29 14:56:00,66.9,53.0,29.82,SW,233,7.0,13.0,62,0.00,,,0.00,432,weatherlink.com 1.10,2013-04-29 18:56:00,
2013-04-29 15:11:00,67.2,53.0,29.82,SW,220,5.0,12.0,61,0.00,,,0.00,424,weatherlink.com 1.10,2013-04-29 19:11:00,
2013-04-29 15:26:00,67.6,53.0,29.82,SSE,160,4.0,14.0,59,0.00,,,0.00,329,weatherlink.com 1.10,2013-04-29 19:26:00,
2013-04-29 15:41:00,67.9,53.0,29.81,WSW,256,2.0,10.0,59,0.00,,,0.00,406,weatherlink.com 1.10,2013-04-29 19:41:00,
2013-04-29 15:56:00,68.1,54.0,29.81,SSW,195,2.0,14.0,60,0.00,,,0.00,322,weatherlink.com 1.10,2013-04-29 19:56:00,
2013-04-29 16:11:00,67.7,53.0,29.81,SSW,197,7.0,12.0,60,0.00,,,0.00,309,weatherlink.com 1.10,2013-04-29 20:11:00,
2013-04-29 16:26:00,67.5,53.0,29.80,SSW,209,6.0,16.0,61,0.00,,,0.00,221,weatherlink.com 1.10,2013-04-29 20:26:00,
2013-04-29 16:41:00,67.3,54.0,29.80,South,181,5.0,13.0,62,0.00,,,0.00,278,weatherlink.com 1.10,2013-04-29 20:41:00,
2013-04-29 16:56:00,67.9,53.0,29.79,WSW,251,6.0,14.0,60,0.00,,,0.00,533,weatherlink.com 1.10,2013-04-29 20:56:00,
2013-04-29 17:11:00,68.5,53.0,29.79,SSW,195,10.0,16.0,58,0.00,,,0.00,591,weatherlink.com 1.10,2013-04-29 21:11:00,
2013-04-29 17:26:00,68.6,53.0,29.79,South,177,7.0,14.0,58,0.00,,,0.00,671,weatherlink.com 1.10,2013-04-29 21:26:00,
2013-04-29 17:41:00,68.9,53.0,29.79,SSW,208,1.0,13.0,58,0.00,,,0.00,566,weatherlink.com 1.10,2013-04-29 21:41:00,
2013-04-29 17:56:00,68.9,54.0,29.79,South,185,7.0,13.0,60,0.00,,,0.00,478,weatherlink.com 1.10,2013-04-29 21:56:00,
2013-04-29 18:11:00,68.6,54.0,29.78,South,187,3.0,13.0,60,0.00,,,0.00,327,weatherlink.com 1.10,2013-04-29 22:11:00,
2013-04-29 18:26:00,67.9,54.0,29.79,SSW,204,6.0,12.0,61,0.00,,,0.00,343,weatherlink.com 1.10,2013-04-29 22:26:00,
2013-04-29 18:41:00,67.6,54.0,29.79,South,187,5.0,13.0,61,0.00,,,0.00,146,weatherlink.com 1.10,2013-04-29 22:41:00,
2013-04-29 18:56:00,67.8,54.0,29.79,South,181,7.0,11.0,61,0.00,,,0.00,251,weatherlink.com 1.10,2013-04-29 22:56:00,
2013-04-29 19:11:00,67.7,54.0,29.78,SSW,195,9.0,13.0,62,0.00,,,0.00,142,weatherlink.com 1.10,2013-04-29 23:11:00,
2013-04-29 19:26:00,67.4,54.0,29.78,SSW,194,7.0,14.0,62,0.00,,,0.00,77,weatherlink.com 1.10,2013-04-29 23:26:00,
2013-04-29 19:41:00,66.9,54.0,29.78,South,170,2.0,13.0,63,0.00,,,0.00,88,weatherlink.com 1.10,2013-04-29 23:41:00,
2013-04-29 19:56:00,66.5,55.0,29.78,SE,145,6.0,11.0,66,0.00,,,0.00,69,weatherlink.com 1.10,2013-04-29 23:56:00,
2013-04-29 20:11:00,66.0,55.0,29.78,SSE,149,4.0,9.0,67,0.00,,,0.00,42,weatherlink.com 1.10,2013-04-30 00:11:00,
2013-04-29 20:26:00,65.5,55.0,29.78,SSE,156,2.0,14.0,68,0.00,,,0.00,14,weatherlink.com 1.10,2013-04-30 00:26:00,
2013-04-29 20:41:00,65.1,55.0,29.79,SSE,147,0.0,7.0,69,0.00,,,0.00,0,weatherlink.com 1.10,2013-04-30 00:41:00,
2013-04-29 20:56:00,64.5,55.0,29.79,South,182,4.0,7.0,70,0.00,,,0.00,0,weatherlink.com 1.10,2013-04-30 00:56:00,
2013-04-29 21:11:00,63.9,54.0,29.79,SSE,158,2.0,5.0,71,0.00,,,0.00,0,weatherlink.com 1.10,2013-04-30 01:11:00,
2013-04-29 21:26:00,63.1,55.0,29.80,South,172,1.0,7.0,74,0.00,,,0.00,0,weatherlink.com 1.10,2013-04-30 01:26:00,
2013-04-29 21:41:00,62.6,55.0,29.80,SE,139,7.0,8.0,75,0.00,,,0.00,0,weatherlink.com 1.10,2013-04-30 01:41:00,
2013-04-29 21:56:00,62.2,55.0,29.80,SSE,152,5.0,11.0,76,0.00,,,0.00,0,weatherlink.com 1.10,2013-04-30 01:56:00,
2013-04-29 22:12:00,62.1,54.0,29.80,SSE,153,3.0,8.0,76,0.00,,,0.00,0,weatherlink.com 1.10,2013-04-30 02:12:00,
2013-04-29 22:27:00,61.9,54.0,29.81,South,170,3.0,9.0,76,0.00,,,0.00,0,weatherlink.com 1.10,2013-04-30 02:27:00,
2013-04-29 22:42:00,61.5,54.0,29.80,SSE,155,3.0,9.0,77,0.00,,,0.00,0,weatherlink.com 1.10,2013-04-30 02:42:00,
2013-04-29 22:57:00,61.1,54.0,29.80,SSE,166,5.0,9.0,78,0.00,,,0.00,0,weatherlink.com 1.10,2013-04-30 02:57:00,
2013-04-29 23:12:00,60.8,54.0,29.80,SSE,156,4.0,8.0,78,0.00,,,0.00,0,weatherlink.com 1.10,2013-04-30 03:12:00,
2013-04-29 23:27:00,60.5,54.0,29.79,SE,144,1.0,9.0,79,0.00,,,0.00,0,weatherlink.com 1.10,2013-04-30 03:27:00,
2013-04-29 23:42:00,60.2,54.0,29.79,South,172,7.0,14.0,79,0.00,,,0.00,0,weatherlink.com 1.10,2013-04-30 03:42:00,
2013-04-29 23:57:00,60.0,53.0,29.80,SSE,165,5.0,12.0,79,0.00,,,0.00,0,weatherlink.com 1.10,2013-04-30 03:57:00,